Weather History for Denver Centennial, CO

Change the Weather History Date:

Thursday, December 6, 2012

  Actual Average Record
Temperature  
Mean Temperature 39 °F -  
Max Temperature 50 °F 43 °F 62 °F (2003)
Min Temperature 28 °F 20 °F -13 °F (2013)
Degree Days  
Heating Degree Days 26    
Month to date heating degree days 117  
Moisture  
Dew Point 29 °F    
Average Humidity 64    
Maximum Humidity 85    
Minimum Humidity 42    
Precipitation  
Precipitation 0.00 in - - ()
Month to date precipitation 0.00  
Year to date precipitation 13.64  
Sea Level Pressure  
Sea Level Pressure 29.90 in    
Wind  
Wind Speed 5 mph (ESE)    
Max Wind Speed 14 mph    
Max Gust Speed 18 mph    
Visibility 10 miles    
Events      
Averages and records for this station are not official NWS values.
T = Trace of Precipitation, MM = Missing Value Source: NWS Daily Summary

Daily Weather History Graph

Daily Weather History Graph

Search for Another Location

Airport:

Trip Planner

Search our weather history database for the weather conditions in past years. The results will help you decide how hot, cold, wet, or windy it might be!

Date:

Astronomy

Dec. 06, 2012 Rise Set
Actual Time 7:06 AM MST 4:35 PM MST
Civil Twilight 6:36 AM MST 5:05 PM MST
Nautical Twilight 6:02 AM MST 5:38 PM MST
Astronomical Twilight 5:29 AM MST 6:11 PM MST
Moon No Moon Rise 12:01 PM MST (12/6)
Length of Visible Light 10h 29m
Length of Day
9h 29m
Waning Gibbous, 48% of the Moon is Illuminated
Dec 6
Waning Gibbous
Dec 13
New
Dec 19
First Quarter
Dec 28
Full
Jan 4
Last Quarter

Hourly Weather History & Observations

Time (MST) Temp. Windchill Dew Point Humidity Pressure Visibility Wind Dir Wind Speed Gust Speed Precip Events Conditions
12:53 AM 46.9 °F - 25.0 °F 42% 29.81 in 10.0 mi ENE 3.5 mph - N/A   Clear
1:53 AM 46.0 °F 41.9 °F 26.1 °F 46% 29.81 in 10.0 mi NW 8.1 mph - N/A   Clear
2:53 AM 42.1 °F 40.2 °F 26.1 °F 53% 29.83 in 10.0 mi Variable 3.5 mph - N/A   Scattered Clouds
3:53 AM 42.1 °F - 26.1 °F 53% 29.84 in 10.0 mi Calm Calm - N/A   Scattered Clouds
4:53 AM 41.0 °F 38.0 °F 26.1 °F 55% 29.89 in 10.0 mi ESE 4.6 mph - N/A   Mostly Cloudy
5:53 AM 44.1 °F 39.0 °F 27.0 °F 51% 29.89 in 10.0 mi East 9.2 mph - N/A   Overcast
6:53 AM 44.1 °F 37.4 °F 28.0 °F 53% 29.94 in 10.0 mi East 13.8 mph 18.4 mph N/A   Mostly Cloudy
7:53 AM 43.0 °F 36.8 °F 28.9 °F 58% 29.96 in 10.0 mi East 11.5 mph 17.3 mph N/A   Overcast
8:53 AM 44.1 °F 40.8 °F 32.0 °F 63% 29.98 in 10.0 mi ENE 5.8 mph - N/A   Mostly Cloudy
9:53 AM 43.0 °F - 30.9 °F 62% 30.00 in 10.0 mi Calm Calm - N/A   Overcast
10:53 AM 42.1 °F 37.1 °F 32.0 °F 67% 29.99 in 10.0 mi NE 8.1 mph - N/A   Overcast
11:53 AM 43.0 °F 40.3 °F 32.0 °F 65% 29.96 in 10.0 mi East 4.6 mph - N/A   Mostly Cloudy
12:53 PM 45.0 °F 43.5 °F 32.0 °F 60% 29.92 in 10.0 mi ENE 3.5 mph - N/A   Mostly Cloudy
1:53 PM 45.0 °F 43.5 °F 30.9 °F 58% 29.88 in 10.0 mi Variable 3.5 mph - N/A   Mostly Cloudy
2:53 PM 46.0 °F 42.5 °F 30.9 °F 56% 29.88 in 10.0 mi SE 6.9 mph - N/A   Scattered Clouds
3:53 PM 45.0 °F 41.8 °F 30.9 °F 58% 29.87 in 10.0 mi East 5.8 mph - N/A   Scattered Clouds
4:53 PM 41.0 °F 37.1 °F 30.9 °F 67% 29.88 in 10.0 mi ENE 5.8 mph - N/A   Scattered Clouds
5:53 PM 37.9 °F 30.9 °F 30.0 °F 73% 29.88 in 10.0 mi South 10.4 mph - N/A   Scattered Clouds
6:53 PM 37.0 °F 29.8 °F 28.9 °F 73% 29.88 in 10.0 mi SE 10.4 mph - N/A   Partly Cloudy
7:53 PM 35.1 °F 30.1 °F 28.0 °F 76% 29.90 in 10.0 mi SE 5.8 mph - N/A   Partly Cloudy
8:53 PM 33.1 °F 28.7 °F 28.0 °F 82% 29.89 in 10.0 mi SW 4.6 mph - N/A   Scattered Clouds
9:53 PM 34.0 °F - 28.0 °F 79% 29.90 in 10.0 mi Calm Calm - N/A   Scattered Clouds
10:53 PM 30.0 °F 26.5 °F 26.1 °F 85% 29.91 in 10.0 mi SSW 3.5 mph - N/A   Mostly Cloudy
11:53 PM 30.9 °F 25.2 °F 27.0 °F 85% 29.89 in 10.0 mi South 5.8 mph - N/A   Mostly Cloudy